Regional Weather Roundup
Issued by NWS

Home | Current Version | Previous Version | Text Only | Print | Product List | Glossary On
Versions: 1 2 3 4 5 6 7 8 9 10 11 12 13 14 15 16 17 18 19 20 21 22 23 24 25 26 27 28 29 30 31 32 33 34 35 36 37 38 39 40 41 42 43 44 45 46 47 48 49 50
000
ASUS44 KFWD 250115
RWRTX
NORTH TEXAS HOURLY WEATHER ROUNDUP
NATIONAL WEATHER SERVICE FORT WORTH TX
800 PM CDT MON JUL 24 2017

NOTE: "FAIR" INDICATES FEW OR NO CLOUDS BELOW 12,000 FEET WITH NO
SIGNIFICANT WEATHER AND/OR OBSTRUCTIONS TO VISIBILITY.

TXZ118-119-250200-
DALLAS/FORT WORTH METROPLEX

CITY           SKY/WX    TMP DP  RH WIND       PRES   REMARKS
DFW AIRPORT    PTCLDY    88  76  67 SE13      29.92S HX  99
DALLAS LOVE    PTCLDY    87  75  67 SE14      29.94R HX  96
FTW MEACHAM    PTCLDY    90  73  57 SE9       29.92S HX  98
DAL-EXECUTIVE  CLEAR     86  74  67 SE10      29.94S HX  94
FTW-ALLIANCE   PTCLDY    88  73  61 SE10      29.93S HX  95
FTW-SPINKS     CLEAR     89  69  52 SE7       29.95S HAZE    HX  93
ARLINGTON      PTCLDY    89  72  56 SE9       29.94S HX  96
GRAND PRAIRIE  CLEAR     88  72  58 SE7       29.94F HX  94
ADDISON        CLEAR     88  73  62 SE10      29.95S HX  96
MESQUITE       PTCLDY    84  75  74 SE8       29.95S HX  92
LANCASTER      CLEAR     86  73  64 SE10      29.95S HX  92
$$

TXZ091>094-102>105-117-120-121-131>134-250200-
NORTH CENTRAL TEXAS

CITY           SKY/WX    TMP DP  RH WIND       PRES   REMARKS
SHRMAN/DENISON CLEAR     87  71  59 SE8       29.96S HX  92
GAINESVILLE    CLEAR     86  70  57 SE5       29.97R HX  91
BOWIE          CLEAR     87  74  65 CALM      29.95S HX  95
BRIDGEPORT     CLEAR     88  71  57 SE5       29.95S HX  93
DECATUR        CLEAR     87  73  62 E7          N/A  HX  94
DENTON         CLEAR     88  74  63 SE10      29.93S HX  96
MCKINNEY       CLEAR     86  75  69 SE8       29.95S HX  95
BONHAM         CLEAR     86  70  58 S6        29.95S HX  90
GREENVILLE     PTCLDY    90  73  58 S6        29.96R HX  98
ROCKWALL       PTCLDY    84  75  73 S6        29.96S HX  92
TERRELL        PTCLDY    85  74  69 S8        29.96S HX  92
WAXAHACHIE     CLEAR     86  74  66 SE7       29.96S HX  93
CLEBURNE       CLEAR     88  70  55 S8        29.97R HX  92
GRANBURY       CLEAR     91  69  48 SE12      29.95R HX  95
$$

TXZ083>090-098>101-113>116-127>130-139>142-154-155-250200-
WESTERN NORTH TEXAS

CITY           SKY/WX    TMP DP  RH WIND       PRES   REMARKS
WICHITA FALLS  PTCLDY    88  70  55 E13       29.92R HX  93
WF-KICKAPOO    CLEAR     90  71  54 E7        29.95R HX  96
VERNON         CLEAR     91  63  39 SE7       29.94R HX  91
ABILENE        CLEAR     89  66  46 SE12      29.96R HX  91
ABILENE-DYESS  PTCLDY    91  69  48 SE16      29.94R HX  95
GRAHAM         CLEAR     91  66  43 SE9G16    29.92R HX  94
BRECKENRIDGE   CLEAR     91  64  40 SE6       29.93R HX  93
CISCO          CLOUDY    90  66  45 SE9       29.96S HX  92
EASTLAND       CLEAR     89  70  53 SE7       29.95R HX  94
RANGER         CLEAR     89  68  49 SE7       29.96R HX  93
MINERAL WELLS  CLEAR     89  68  49 SE13      29.92S HX  93
STEPHENVILLE   MOCLDY    87  70  56 SE8       29.99R HX  92
COMANCHE       CLOUDY    74  74  97 S13       29.98R
BROWNWOOD      CLEAR     90  66  45 S7        29.97R HX  92
COLEMAN        CLEAR     86  70  58 S9        29.98R HX  90
$$

TXZ143>147-156>162-174-175-250200-
CENTRAL TEXAS

CITY           SKY/WX    TMP DP  RH WIND       PRES   REMARKS
WACO           CLEAR     86  73  65 SE5       29.94S HX  93
WACO-TSTC      CLEAR     86  70  58 SE3       29.95R HX  90
WACO-MCGREGOR  CLEAR     88  68  51 S7        29.95R HX  91
HILLSBORO      CLEAR     87  72  60 SE7       29.95S HX  93
CORSICANA      PTCLDY    84  75  74 SE7       29.96S HX  92
MEXIA          PTCLDY    83  74  74 S7        29.95S
HEARNE         CLOUDY    78  76  94 NE9       29.94F
CAMERON        CLOUDY    79  74  86 CALM      29.94S
TEMPLE         CLOUDY    84  73  69 E6        29.95F HX  90
KILLEEN        CLEAR     86  66  50 SE8       29.94S
KILLEEN-SKYLRK CLOUDY    87  69  54 SE8       29.95S HX  91
FORT HOOD      CLEAR     86  67  52 SE7       29.92S
HAMILTON       CLEAR     85  70  60 S5        29.98R
LAMPASAS       CLOUDY    91  70  50 SE7       29.96S HX  96
$$

TXZ095>097-106>112-122>126-135>138-148>153-164>167-250200-
EAST TEXAS

CITY           SKY/WX    TMP DP  RH WIND       PRES   REMARKS
PARIS            N/A     87  76  69 SE3       29.96R HX  97
SULPHUR SPRNGS PTCLDY    85  74  68 E3        29.98R HX  92
MOUNT PLEASANT CLEAR     84  71  64 SW3       29.96S
GILMER         CLOUDY    83  78  84 CALM      29.96R HX  92
MINEOLA        CLEAR     86  73  66 S3        29.96R HX  93
TYLER          CLOUDY    84  76  76 S8        29.97R HX  93
LONGVIEW       CLOUDY    84  78  82 SW8       29.96R HX  95
MARSHALL         N/A     85  78  78 CALM      29.98R HX  96
ATHENS         PTCLDY    82  72  69 S3        29.96R
PALESTINE      PTCLDY    81  76  83 CALM      29.98S
JACKSONVILLE   PTCLDY    80  76  87 CALM      30.00S
HENDERSON      PTCLDY    81  74  77 SW3       29.99R
CENTER           N/A     85  79  83 CALM      29.99R HAZE    HX  97
NACOGDOCHES    PTCLDY    81  77  89 SE3       29.95S
LUFKIN         CLOUDY    82  78  88 SE3       29.97S HX  91
$$

SUPPLEMENTAL OBSERVATIONS (NWS FORT WORTH AREA)

CITY           SKY/WX    TMP DP  RH WIND       PRES   REMARKS
DENISON DAM      N/A     88  70  55 SE3         N/A  HX  92
CADDO GRASSLND   N/A     86  75  70 E1          N/A  HX  95
PAT MAYSE LAKE   N/A     88  79  74 NE2         N/A  HX 102
GREENVILLE       N/A     84  72  65 S3          N/A
CEDAR HILL       N/A     86  73  66 SE3         N/A  HX  93
LBJ GRASSLAND    N/A     88  72  58 E6          N/A  HX  94
POSSUM KINGDOM   N/A     90  64  43 SE9         N/A  HX  91
GRANBURY         N/A     90  68  48 SE12        N/A  HX  93
MCGREGOR         N/A     82  70  65 S6          N/A
TEMPLE           N/A     84  70  61 E5          N/A
ATHENS           N/A     84  73  70 S3          N/A  HX  91
$$

SUPPLEMENTAL OBSERVATIONS (NWS NORMAN AREA)

CITY           SKY/WX    TMP DP  RH WIND       PRES   REMARKS
GOODLETT         N/A     90  63  40 CALM      29.95R HX  90
ODELL            N/A     86  72  64 E9        29.95R HX  92
CROWELL          N/A     93  67  43 SE7       29.95R HX  96
KNOX CITY        N/A     93  62  35 E9        29.94R HX  94
SEYMOUR          N/A     93  64  38 SE13      29.93R HX  95
MILLERS CREEK    N/A     90  68  48 SE7         N/A  HX  93
$$

SUPPLEMENTAL OBSERVATIONS (NWS SAN ANGELO AREA)

CITY           SKY/WX    TMP DP  RH WIND       PRES   REMARKS
WEINERT          N/A     92  68  46 SE9       29.95R HX  96
HASKELL          N/A     90  63  39 E9        29.95R HX  91
THROCKMORTON     N/A     89  70  54 SE6       29.95R HX  94
STAMFORD         N/A     92  66  42 SE14      29.95R HX  95
CLYDE            N/A     88  69  52 S9        29.99R HX  92
HAMBY            N/A     91  66  43 SE8         N/A  HX  94
IVIE RESERVOIR   N/A     84  66  54 SE12        N/A
COLORADO BEND    N/A     86  66  51 SE5         N/A
$$

SUPPLEMENTAL OBSERVATIONS (NWS SHREVEPORT AREA)

CITY           SKY/WX    TMP DP  RH WIND       PRES   REMARKS
TEXARKANA        N/A     84  77  79 CALM        N/A  HX  94
LINDEN           N/A     88  73  62 CALM        N/A  HX  96
CADDO LAKE       N/A     84  77  79 CALM        N/A  HX  94
N SABINE NF      N/A     79  75  89 MISG        N/A
$$

SUPPLEMENTAL OBSERVATIONS ARE A COLLECTION OF AUTOMATED INSTRUMENTS
THAT ARE MAINTAINED BY A VARIETY OF FEDERAL AND STATE AGENCIES.
CERTAIN ELEMENTS...SUCH AS HUMIDITY VALUES AND SUSTAINED WIND
SPEEDS...MAY BE APPROXIMATED.




USA.gov is the U.S. government's official web portal to all federal, state and local government web resources and services.